,,PA_Meas_PMT16A,,PR_Meas_QMR101_102,,RH_Meas_QMH101,,SR_Meas_QMS101,,TA_Meas_QMH101,,GenWind,,GenWind,
time,status,PA,status,PR,status,RH,status,SR,status,TA,status,DirAvg,status,SpdAvg,
2011-10-27, 00:00:04,VALID,916.337,VALID,0,VALID,95.3232,VALID,0,VALID,20.2653,VALID,107,VALID,0.576172,
2011-10-27, 00:01:04,VALID,916.346,VALID,0,VALID,95.4071,VALID,0,VALID,20.2879,VALID,107,VALID,0.570703,
2011-10-27, 00:02:04,VALID,916.358,VALID,0,VALID,95.4833,VALID,0,VALID,20.2668,VALID,107,VALID,0.485547,
2011-10-27, 00:03:04,VALID,916.327,VALID,0,VALID,95.5671,VALID,0,VALID,20.2668,VALID,107,VALID,0.260547,
2011-10-27, 00:04:04,VALID,916.304,VALID,0,VALID,95.6662,VALID,0,VALID,20.2684,VALID,107,VALID,0.709766,
2011-10-27, 00:05:04,VALID,916.29,VALID,0,VALID,95.7882,VALID,0,VALID,20.2668,VALID,157,VALID,1.02734,
2011-10-27, 00:06:04,VALID,916.3,VALID,0,VALID,95.9178,VALID,0,VALID,20.2473,VALID,157,VALID,0.8875,
2011-10-27, 00:07:04,VALID,916.287,VALID,0,VALID,96.0474,VALID,0,VALID,20.2684,VALID,157,VALID,1.56055,
2011-10-27, 00:08:04,VALID,916.266,VALID,0,VALID,96.1694,VALID,0,VALID,20.2473,VALID,157,VALID,1.1,
2011-10-27, 00:09:04,VALID,916.267,VALID,0,VALID,96.2761,VALID,0,VALID,20.2473,VALID,157,VALID,1.13828,
2011-10-27, 00:10:04,VALID,916.26,VALID,0,VALID,96.2914,VALID,0,VALID,20.2278,VALID,157,VALID,0.69375,
2011-10-27, 00:11:04,VALID,916.251,VALID,0,VALID,96.3752,VALID,0,VALID,20.2278,VALID,157,VALID,0.0550781,
2011-10-27, 00:12:04,VALID,916.218,VALID,0,VALID,96.3829,VALID,0,VALID,20.2293,VALID,157,VALID,0.333203,
2011-10-27, 00:13:04,VALID,916.216,VALID,0,VALID,96.3905,VALID,0,VALID,20.1888,VALID,157,VALID,0.809375,
2011-10-27, 00:14:04,VALID,916.193,VALID,0,VALID,96.4133,VALID,0,VALID,20.1888,VALID,157,VALID,1.03516,
2011-10-27, 00:15:04,VALID,916.167,VALID,0,VALID,96.3981,VALID,0,VALID,20.1693,VALID,157,VALID,0.939844,
2011-10-27, 00:16:04,VALID,916.15,VALID,0,VALID,96.3524,VALID,0,VALID,20.1693,VALID,157,VALID,0.855859,
2011-10-27, 00:17:04,VALID,916.11,VALID,0,VALID,96.2761,VALID,0,VALID,20.1693,VALID,157,VALID,0.625781,
2011-10-27, 00:18:04,VALID,916.107,VALID,0,VALID,96.1923,VALID,0,VALID,20.2083,VALID,157,VALID,0.746484,
2011-10-27, 00:19:04,VALID,916.109,VALID,0,VALID,96.1236,VALID,0,VALID,20.2083,VALID,157,VALID,0.84375,
2011-10-27, 00:20:04,VALID,916.091,VALID,0,VALID,96.0169,VALID,0,VALID,20.2098,VALID,123,VALID,0.514844,
2011-10-27, 00:21:04,VALID,916.064,VALID,0,VALID,95.9331,VALID,0,VALID,20.2083,VALID,123,VALID,0.732031,
2011-10-27, 00:22:04,VALID,916.094,VALID,0,VALID,95.8035,VALID,0,VALID,20.2083,VALID,123,VALID,0.844141,
2011-10-27, 00:23:04,VALID,916.078,VALID,0,VALID,95.7272,VALID,0,VALID,20.1888,VALID,123,VALID,0.907031,
2011-10-27, 00:24:04,VALID,916.075,VALID,0,VALID,95.6357,VALID,0,VALID,20.2098,VALID,123,VALID,0.959375,
2011-10-27, 00:25:04,VALID,916.071,VALID,0,VALID,95.5671,VALID,0,VALID,20.2098,VALID,123,VALID,0.413281,
2011-10-27, 00:26:04,VALID,916.055,VALID,0,VALID,95.5138,VALID,0,VALID,20.1693,VALID,123,VALID,0.196094,
2011-10-27, 00:27:04,VALID,916.017,VALID,0,VALID,95.4909,VALID,0,VALID,20.2098,VALID,123,VALID,0.53125,
2011-10-27, 00:28:04,VALID,916.003,VALID,0,VALID,95.4299,VALID,0,VALID,20.1693,VALID,123,VALID,0.480078,
2011-10-27, 00:29:04,VALID,915.969,VALID,0,VALID,95.3918,VALID,0,VALID,20.1903,VALID,123,VALID,0.525391,
2011-10-27, 00:30:04,VALID,915.982,VALID,0,VALID,95.3994,VALID,0,VALID,20.1708,VALID,123,VALID,0.621484,
2011-10-27, 00:31:04,VALID,915.95,VALID,0,VALID,95.4375,VALID,0,VALID,20.1513,VALID,123,VALID,0.659766,
2011-10-27, 00:32:04,VALID,915.953,VALID,0,VALID,95.4375,VALID,0,VALID,20.1513,VALID,123,VALID,0.492578,
2011-10-27, 00:33:04,VALID,915.954,VALID,0,VALID,95.4985,VALID,0,VALID,20.1303,VALID,123,VALID,0.462891,
2011-10-27, 00:34:04,VALID,915.958,VALID,0,VALID,95.5214,VALID,0,VALID,20.1303,VALID,123,VALID,0.356641,
2011-10-27, 00:35:04,VALID,915.952,VALID,0,VALID,95.5748,VALID,0,VALID,20.1303,VALID,123,VALID,0.10625,
2011-10-27, 00:36:04,VALID,915.957,VALID,0,VALID,95.651,VALID,0,VALID,20.1498,VALID,123,VALID,0.473828,
2011-10-27, 00:37:04,VALID,915.929,VALID,0,VALID,95.6357,VALID,0,VALID,20.1303,VALID,123,VALID,0.549609,
2011-10-27, 00:38:04,VALID,915.93,VALID,0,VALID,95.6586,VALID,0,VALID,20.0898,VALID,123,VALID,0.425,
2011-10-27, 00:39:04,VALID,915.928,VALID,0,VALID,95.7577,VALID,0,VALID,20.1513,VALID,123,VALID,0.740234,
2011-10-27, 00:40:04,VALID,915.941,VALID,0,VALID,95.8568,VALID,0,VALID,20.1498,VALID,123,VALID,0.725781,
2011-10-27, 00:41:04,VALID,915.974,VALID,0,VALID,95.895,VALID,0,VALID,20.1108,VALID,123,VALID,0.226563,
2011-10-27, 00:42:04,VALID,915.96,VALID,0,VALID,95.9788,VALID,0,VALID,20.1318,VALID,123,VALID,0.211328,
2011-10-27, 00:43:04,VALID,915.944,VALID,0,VALID,96.0627,VALID,0,VALID,20.1318,VALID,123,VALID,0.340234,
2011-10-27, 00:44:04,VALID,915.97,VALID,0,VALID,96.1465,VALID,0,VALID,20.1108,VALID,123,VALID,0.551562,
2011-10-27, 00:45:04,VALID,915.979,VALID,0,VALID,96.2304,VALID,0,VALID,20.1108,VALID,123,VALID,0,
2011-10-27, 00:46:04,VALID,915.985,VALID,0,VALID,96.2761,VALID,0,VALID,20.1303,VALID,123,VALID,0.366406,
2011-10-27, 00:47:04,VALID,915.949,VALID,0,VALID,96.3524,VALID,0,VALID,20.1513,VALID,123,VALID,0.878516,
2011-10-27, 00:48:04,VALID,915.936,VALID,0,VALID,96.3981,VALID,0,VALID,20.1513,VALID,123,VALID,0.539453,
2011-10-27, 00:49:04,VALID,915.957,VALID,0,VALID,96.421,VALID,0,VALID,20.1108,VALID,123,VALID,0.545313,
2011-10-27, 00:50:04,VALID,915.928,VALID,0,VALID,96.4591,VALID,0,VALID,20.1108,VALID,123,VALID,0.483984,
2011-10-27, 00:51:04,VALID,915.951,VALID,0,VALID,96.4819,VALID,0,VALID,20.1318,VALID,123,VALID,0.328516,
2011-10-27, 00:52:04,VALID,915.951,VALID,0,VALID,96.5124,VALID,0,VALID,20.1108,VALID,123,VALID,0.417969,
2011-10-27, 00:53:04,VALID,915.934,VALID,0,VALID,96.5734,VALID,0,VALID,20.1318,VALID,123,VALID,0.191016,
2011-10-27, 00:54:04,VALID,915.951,VALID,0,VALID,96.6115,VALID,0,VALID,20.1303,VALID,123,VALID,0,
2011-10-27, 00:55:04,VALID,915.948,VALID,0,VALID,96.6192,VALID,0,VALID,20.1498,VALID,123,VALID,0.237109,
2011-10-27, 00:56:04,VALID,915.964,VALID,0,VALID,96.6649,VALID,0,VALID,20.1303,VALID,123,VALID,0,
2011-10-27, 00:57:04,VALID,915.914,VALID,0,VALID,96.6725,VALID,0.107441,VALID,20.1498,VALID,123,VALID,0.278906,
2011-10-27, 00:58:04,VALID,915.921,VALID,0,VALID,96.6954,VALID,0,VALID,20.1693,VALID,123,VALID,0.175,
2011-10-27, 00:59:04,VALID,915.936,VALID,0,VALID,96.7107,VALID,0,VALID,20.1498,VALID,123,VALID,0.230469,
2011-10-27, 01:00:04,VALID,915.958,VALID,0,VALID,96.7335,VALID,0,VALID,20.1708,VALID,123,VALID,0.279687,
2011-10-27, 01:01:04,VALID,915.93,VALID,0,VALID,96.7335,VALID,0,VALID,20.1903,VALID,123,VALID,0.198437,
2011-10-27, 01:02:04,VALID,915.931,VALID,0,VALID,96.7488,VALID,0,VALID,20.1903,VALID,123,VALID,0,
2011-10-27, 01:03:04,VALID,915.938,VALID,0,VALID,96.7335,VALID,0,VALID,20.1498,VALID,123,VALID,0.333984,
2011-10-27, 01:04:04,VALID,915.905,VALID,0,VALID,96.7259,VALID,0,VALID,20.1498,VALID,123,VALID,0.205469,
2011-10-27, 01:05:04,VALID,915.893,VALID,0,VALID,96.7259,VALID,0,VALID,20.1498,VALID,123,VALID,0,
2011-10-27, 01:06:04,VALID,915.891,VALID,0,VALID,96.7716,VALID,0,VALID,20.1888,VALID,123,VALID,0.503906,
2011-10-27, 01:07:04,VALID,915.9,VALID,0,VALID,96.8021,VALID,0,VALID,20.2278,VALID,123,VALID,0.208984,
2011-10-27, 01:08:04,VALID,915.861,VALID,0,VALID,96.825,VALID,0,VALID,20.2473,VALID,123,VALID,0.327734,
2011-10-27, 01:09:04,VALID,915.859,VALID,0,VALID,96.8098,VALID,0,VALID,20.2668,VALID,123,VALID,0.330469,
2011-10-27, 01:10:04,VALID,915.861,VALID,0,VALID,96.8326,VALID,0,VALID,20.2668,VALID,123,VALID,0.421094,
2011-10-27, 01:11:04,VALID,915.851,VALID,0,VALID,96.7945,VALID,0,VALID,20.2473,VALID,123,VALID,0.303906,
2011-10-27, 01:12:04,VALID,915.797,VALID,0,VALID,96.7488,VALID,0,VALID,20.2083,VALID,123,VALID,0,
2011-10-27, 01:13:04,VALID,915.819,VALID,0,VALID,96.7335,VALID,0,VALID,20.1888,VALID,123,VALID,0,
2011-10-27, 01:14:04,VALID,915.795,VALID,0,VALID,96.6497,VALID,0,VALID,20.1888,VALID,123,VALID,0.221875,
2011-10-27, 01:15:04,VALID,915.787,VALID,0,VALID,96.6344,VALID,0.107441,VALID,20.2083,VALID,123,VALID,0.512109,
2011-10-27, 01:16:04,VALID,915.784,VALID,0,VALID,96.6344,VALID,0,VALID,20.2083,VALID,123,VALID,0.471094,
2011-10-27, 01:17:04,VALID,915.773,VALID,0,VALID,96.6039,VALID,0,VALID,20.2293,VALID,123,VALID,0.442578,
2011-10-27, 01:18:04,VALID,915.751,VALID,0,VALID,96.5506,VALID,0,VALID,20.1888,VALID,123,VALID,0.588672,
2011-10-27, 01:19:04,VALID,915.709,VALID,0,VALID,96.5353,VALID,0,VALID,20.1693,VALID,124,VALID,0.550391,
2011-10-27, 01:20:04,VALID,915.688,VALID,0,VALID,96.4591,VALID,0,VALID,20.1498,VALID,124,VALID,0.714453,
2011-10-27, 01:21:04,VALID,915.67,VALID,0,VALID,96.4591,VALID,0,VALID,20.1693,VALID,124,VALID,0.667188,
2011-10-27, 01:22:04,VALID,915.665,VALID,0,VALID,96.3752,VALID,0,VALID,20.1513,VALID,124,VALID,0.777344,
2011-10-27, 01:23:04,VALID,915.632,VALID,0,VALID,96.36,VALID,0,VALID,20.1513,VALID,124,VALID,0.494922,
2011-10-27, 01:24:04,VALID,915.608,VALID,0,VALID,96.3447,VALID,0,VALID,20.1708,VALID,140,VALID,0.530078,
2011-10-27, 01:25:04,VALID,915.612,VALID,0,VALID,96.3066,VALID,0,VALID,20.1708,VALID,140,VALID,0.355859,
2011-10-27, 01:26:04,VALID,915.574,VALID,0,VALID,96.3066,VALID,0,VALID,20.1888,VALID,141,VALID,0.388281,
2011-10-27, 01:27:04,VALID,915.587,VALID,0,VALID,96.2761,VALID,0,VALID,20.1903,VALID,140,VALID,0.464063,
2011-10-27, 01:28:04,VALID,915.559,VALID,0,VALID,96.299,VALID,0,VALID,20.1498,VALID,141,VALID,0.334375,
2011-10-27, 01:29:04,VALID,915.552,VALID,0,VALID,96.299,VALID,0,VALID,20.1498,VALID,141,VALID,0.29375,
2011-10-27, 01:30:04,VALID,915.505,VALID,0,VALID,96.2304,VALID,0,VALID,20.1303,VALID,141,VALID,0.46875,
2011-10-27, 01:31:04,VALID,915.531,VALID,0,VALID,96.2228,VALID,0,VALID,20.1303,VALID,141,VALID,0.415234,
2011-10-27, 01:32:04,VALID,915.513,VALID,0,VALID,96.2304,VALID,0,VALID,20.0913,VALID,140,VALID,0.480859,
2011-10-27, 01:33:04,VALID,915.488,VALID,0,VALID,96.2761,VALID,0,VALID,20.0913,VALID,141,VALID,0.514453,
2011-10-27, 01:34:04,VALID,915.508,VALID,0,VALID,96.2914,VALID,0,VALID,20.1123,VALID,141,VALID,0.441016,
2011-10-27, 01:35:04,VALID,915.455,VALID,0,VALID,96.3524,VALID,0,VALID,20.0913,VALID,141,VALID,0.366016,
2011-10-27, 01:36:04,VALID,915.434,VALID,0,VALID,96.36,VALID,0.107441,VALID,20.0718,VALID,141,VALID,0.355469,
2011-10-27, 01:37:04,VALID,915.435,VALID,0,VALID,96.3447,VALID,0,VALID,20.0718,VALID,141,VALID,0.516406,
2011-10-27, 01:38:04,VALID,915.411,VALID,0,VALID,96.3829,VALID,0,VALID,20.0523,VALID,141,VALID,0.183594,
2011-10-27, 01:39:04,VALID,915.388,VALID,0,VALID,96.4133,VALID,0,VALID,20.0523,VALID,141,VALID,0.140625,
2011-10-27, 01:40:04,VALID,915.388,VALID,0,VALID,96.421,VALID,0,VALID,20.0523,VALID,141,VALID,0.0941406,
2011-10-27, 01:41:04,VALID,915.339,VALID,0,VALID,96.4591,VALID,0,VALID,20.0718,VALID,140,VALID,0.251953,
2011-10-27, 01:42:04,VALID,915.335,VALID,0,VALID,96.421,VALID,0,VALID,20.0538,VALID,140,VALID,0.557422,
2011-10-27, 01:43:04,VALID,915.345,VALID,0,VALID,96.4591,VALID,0,VALID,20.0538,VALID,141,VALID,0.664453,
2011-10-27, 01:44:04,VALID,915.319,VALID,0,VALID,96.4591,VALID,0,VALID,20.0328,VALID,141,VALID,0.509766,
2011-10-27, 01:45:04,VALID,915.301,VALID,0,VALID,96.4667,VALID,0,VALID,20.0133,VALID,141,VALID,0.3125,
2011-10-27, 01:46:04,VALID,915.286,VALID,0,VALID,96.5048,VALID,0,VALID,19.9938,VALID,140,VALID,0,
2011-10-27, 01:47:04,VALID,915.236,VALID,0,VALID,96.5048,VALID,0,VALID,19.9938,VALID,141,VALID,0.280078,
2011-10-27, 01:48:04,VALID,915.216,VALID,0,VALID,96.4896,VALID,0,VALID,19.9743,VALID,141,VALID,0.625781,
2011-10-27, 01:49:04,VALID,915.235,VALID,0,VALID,96.421,VALID,0,VALID,19.9563,VALID,141,VALID,0.630078,
2011-10-27, 01:50:04,VALID,915.207,VALID,0,VALID,96.421,VALID,0,VALID,19.9158,VALID,141,VALID,0.304297,
2011-10-27, 01:51:04,VALID,915.224,VALID,0,VALID,96.3829,VALID,0,VALID,19.9353,VALID,140,VALID,0.566797,
2011-10-27, 01:52:04,VALID,915.231,VALID,0,VALID,96.3371,VALID,0,VALID,19.9563,VALID,141,VALID,0.613281,
2011-10-27, 01:53:04,VALID,915.226,VALID,0,VALID,96.3371,VALID,0,VALID,19.9563,VALID,141,VALID,0.283203,
2011-10-27, 01:54:04,VALID,915.202,VALID,0,VALID,96.3447,VALID,0,VALID,19.9548,VALID,141,VALID,0.348437,
2011-10-27, 01:55:04,VALID,915.197,VALID,0,VALID,96.3524,VALID,0,VALID,19.9758,VALID,141,VALID,0.370703,
2011-10-27, 01:56:04,VALID,915.161,VALID,0,VALID,96.3066,VALID,0,VALID,19.9353,VALID,140,VALID,0.300781,
2011-10-27, 01:57:04,VALID,915.186,VALID,0,VALID,96.3447,VALID,0,VALID,19.9548,VALID,141,VALID,0.303125,
2011-10-27, 01:58:04,VALID,915.171,VALID,0,VALID,96.3371,VALID,0,VALID,19.9563,VALID,141,VALID,0.472656,
2011-10-27, 01:59:04,VALID,915.15,VALID,0,VALID,96.3371,VALID,0,VALID,19.9563,VALID,140,VALID,0.360547,
2011-10-27, 02:00:04,VALID,915.11,VALID,0,VALID,96.3447,VALID,0,VALID,19.9563,VALID,140,VALID,0.390625,
2011-10-27, 02:01:04,VALID,915.127,VALID,0,VALID,96.3371,VALID,0,VALID,19.9563,VALID,140,VALID,0.294531,
2011-10-27, 02:02:04,VALID,915.13,VALID,0,VALID,96.3371,VALID,0,VALID,19.9353,VALID,140,VALID,0.43125,
2011-10-27, 02:03:04,VALID,915.115,VALID,0,VALID,96.36,VALID,0,VALID,19.9353,VALID,141,VALID,0.477344,
2011-10-27, 02:04:04,VALID,915.114,VALID,0,VALID,96.3295,VALID,0,VALID,19.9158,VALID,141,VALID,0.546484,
2011-10-27, 02:05:04,VALID,915.099,VALID,0,VALID,96.3219,VALID,0,VALID,19.9368,VALID,141,VALID,0.576172,
2011-10-27, 02:06:04,VALID,915.112,VALID,0,VALID,96.2761,VALID,0,VALID,19.9158,VALID,140,VALID,0.583984,
2011-10-27, 02:07:04,VALID,915.101,VALID,0,VALID,96.2228,VALID,0,VALID,19.9158,VALID,140,VALID,0.579687,
2011-10-27, 02:08:04,VALID,915.094,VALID,0,VALID,96.1694,VALID,0,VALID,19.9158,VALID,140,VALID,0.485938,
2011-10-27, 02:09:04,VALID,915.1,VALID,0,VALID,96.1465,VALID,0,VALID,19.9353,VALID,140,VALID,0.424219,
2011-10-27, 02:10:04,VALID,915.094,VALID,0,VALID,96.2075,VALID,0,VALID,19.9563,VALID,141,VALID,0.452344,
2011-10-27, 02:11:04,VALID,915.071,VALID,0,VALID,96.1923,VALID,0,VALID,19.9758,VALID,141,VALID,0.705859,
2011-10-27, 02:12:04,VALID,915.073,VALID,0,VALID,96.1389,VALID,0,VALID,19.9548,VALID,140,VALID,0.779688,
2011-10-27, 02:13:04,VALID,915.05,VALID,0,VALID,96.1236,VALID,0,VALID,19.9758,VALID,140,VALID,0.765625,
2011-10-27, 02:14:04,VALID,915.029,VALID,0,VALID,96.1008,VALID,0,VALID,19.9368,VALID,140,VALID,0.858203,
2011-10-27, 02:15:04,VALID,915.029,VALID,0,VALID,96.1389,VALID,0,VALID,19.9563,VALID,140,VALID,0.535937,
2011-10-27, 02:16:04,VALID,915.004,VALID,0,VALID,96.1999,VALID,0,VALID,19.9563,VALID,140,VALID,0.610156,
2011-10-27, 02:17:04,VALID,914.965,VALID,0,VALID,96.1694,VALID,0,VALID,19.9548,VALID,141,VALID,0.766797,
2011-10-27, 02:18:04,VALID,914.949,VALID,0,VALID,96.2533,VALID,0,VALID,19.9353,VALID,141,VALID,0.653125,
2011-10-27, 02:19:04,VALID,914.914,VALID,0,VALID,96.3447,VALID,0,VALID,19.9353,VALID,141,VALID,0.321875,
2011-10-27, 02:20:04,VALID,914.932,VALID,0,VALID,96.4057,VALID,0,VALID,19.9563,VALID,150,VALID,0.676172,
2011-10-27, 02:21:04,VALID,914.951,VALID,0,VALID,96.4591,VALID,0,VALID,19.9548,VALID,150,VALID,0.0757812,
2011-10-27, 02:22:04,VALID,914.934,VALID,0,VALID,96.4972,VALID,0,VALID,19.9758,VALID,150,VALID,0,
2011-10-27, 02:23:04,VALID,914.926,VALID,0,VALID,96.5277,VALID,0,VALID,19.9563,VALID,150,VALID,0.386719,
2011-10-27, 02:24:04,VALID,914.942,VALID,0,VALID,96.5353,VALID,0,VALID,19.9368,VALID,150,VALID,0.637891,
2011-10-27, 02:25:04,VALID,914.904,VALID,0,VALID,96.5429,VALID,0,VALID,19.8963,VALID,150,VALID,0.660547,
2011-10-27, 02:26:04,VALID,914.949,VALID,0,VALID,96.5506,VALID,0,VALID,19.8768,VALID,150,VALID,0.620313,
2011-10-27, 02:27:04,VALID,914.926,VALID,0,VALID,96.6115,VALID,0,VALID,19.8783,VALID,150,VALID,0.95,
2011-10-27, 02:28:04,VALID,914.893,VALID,0,VALID,96.6725,VALID,0,VALID,19.8783,VALID,150,VALID,0.810547,
2011-10-27, 02:29:04,VALID,914.905,VALID,0,VALID,96.6802,VALID,0,VALID,19.8783,VALID,150,VALID,0.432813,
2011-10-27, 02:30:04,VALID,914.893,VALID,0,VALID,96.6954,VALID,0,VALID,19.8783,VALID,150,VALID,0.133594,
2011-10-27, 02:31:04,VALID,914.919,VALID,0,VALID,96.7107,VALID,0,VALID,19.8183,VALID,150,VALID,0.335938,
2011-10-27, 02:32:04,VALID,914.863,VALID,0,VALID,96.7411,VALID,0,VALID,19.8588,VALID,150,VALID,0.0199219,
2011-10-27, 02:33:04,VALID,914.859,VALID,0,VALID,96.764,VALID,0,VALID,19.8183,VALID,150,VALID,0,
2011-10-27, 02:34:04,VALID,914.86,VALID,0,VALID,96.7716,VALID,0,VALID,19.8183,VALID,150,VALID,0,
2011-10-27, 02:35:04,VALID,914.886,VALID,0,VALID,96.7869,VALID,0,VALID,19.8183,VALID,150,VALID,0.364453,
2011-10-27, 02:36:04,VALID,914.887,VALID,0,VALID,96.8021,VALID,0,VALID,19.8183,VALID,150,VALID,0.350391,
2011-10-27, 02:37:04,VALID,914.848,VALID,0,VALID,96.825,VALID,0,VALID,19.8393,VALID,150,VALID,0,
2011-10-27, 02:38:04,VALID,914.87,VALID,0,VALID,96.8174,VALID,0,VALID,19.8183,VALID,150,VALID,0.359766,
2011-10-27, 02:39:04,VALID,914.88,VALID,0,VALID,96.8403,VALID,0,VALID,19.7988,VALID,150,VALID,0.376172,
2011-10-27, 02:40:04,VALID,914.862,VALID,0,VALID,96.8479,VALID,0,VALID,19.7988,VALID,150,VALID,0.321094,
2011-10-27, 02:41:04,VALID,914.803,VALID,0,VALID,96.8707,VALID,0,VALID,19.7988,VALID,150,VALID,0.215234,
2011-10-27, 02:42:04,VALID,914.8,VALID,0,VALID,96.8555,VALID,0,VALID,19.7988,VALID,150,VALID,0.108203,
2011-10-27, 02:43:04,VALID,914.81,VALID,0,VALID,96.8707,VALID,0,VALID,19.7988,VALID,150,VALID,0.0289063,
2011-10-27, 02:44:04,VALID,914.808,VALID,0,VALID,96.886,VALID,0,VALID,19.7988,VALID,150,VALID,0.342969,
2011-10-27, 02:45:04,VALID,914.805,VALID,0,VALID,96.8936,VALID,0,VALID,19.8003,VALID,150,VALID,0.18125,
2011-10-27, 02:46:04,VALID,914.795,VALID,0,VALID,96.9089,VALID,0,VALID,19.7793,VALID,150,VALID,0.355859,
2011-10-27, 02:47:04,VALID,914.826,VALID,0,VALID,96.9165,VALID,0,VALID,19.7598,VALID,150,VALID,0.554297,
2011-10-27, 02:48:04,VALID,914.824,VALID,0,VALID,96.9165,VALID,0,VALID,19.7613,VALID,150,VALID,0.458594,
2011-10-27, 02:49:04,VALID,914.819,VALID,0,VALID,96.9241,VALID,0,VALID,19.7403,VALID,150,VALID,0.328516,
2011-10-27, 02:50:04,VALID,914.801,VALID,0,VALID,96.9394,VALID,0,VALID,19.7403,VALID,150,VALID,0.433203,
2011-10-27, 02:51:04,VALID,914.808,VALID,0,VALID,96.947,VALID,0,VALID,19.7418,VALID,150,VALID,0.401953,
2011-10-27, 02:52:04,VALID,914.787,VALID,0,VALID,96.9546,VALID,0,VALID,19.7418,VALID,150,VALID,0.385547,
2011-10-27, 02:53:04,VALID,914.784,VALID,0,VALID,96.9775,VALID,0,VALID,19.7403,VALID,150,VALID,0.115625,
2011-10-27, 02:54:04,VALID,914.785,VALID,0,VALID,96.9698,VALID,0,VALID,19.7598,VALID,150,VALID,0,
2011-10-27, 02:55:04,VALID,914.752,VALID,0,VALID,97.0003,VALID,0,VALID,19.7403,VALID,150,VALID,0,
2011-10-27, 02:56:04,VALID,914.737,VALID,0,VALID,97.0156,VALID,0,VALID,19.7613,VALID,150,VALID,0,
2011-10-27, 02:57:04,VALID,914.727,VALID,0,VALID,97.0156,VALID,0,VALID,19.7808,VALID,150,VALID,0.0421875,
2011-10-27, 02:58:04,VALID,914.701,VALID,0,VALID,97.008,VALID,0,VALID,19.7598,VALID,150,VALID,0.0113281,
2011-10-27, 02:59:04,VALID,914.689,VALID,0,VALID,97.0156,VALID,0,VALID,19.7613,VALID,150,VALID,0.25625,
2011-10-27, 03:00:04,VALID,914.665,VALID,0,VALID,97.0232,VALID,0,VALID,19.7223,VALID,150,VALID,0.347656,
2011-10-27, 03:01:04,VALID,914.648,VALID,0,VALID,97.0308,VALID,0,VALID,19.7028,VALID,150,VALID,0.264062,
2011-10-27, 03:02:04,VALID,914.669,VALID,0,VALID,97.0232,VALID,0,VALID,19.7028,VALID,150,VALID,0.207813,
2011-10-27, 03:03:04,VALID,914.65,VALID,0,VALID,97.0308,VALID,0,VALID,19.7013,VALID,150,VALID,0.152734,
2011-10-27, 03:04:04,VALID,914.645,VALID,0,VALID,97.0537,VALID,0,VALID,19.7028,VALID,150,VALID,0,
2011-10-27, 03:05:04,VALID,914.619,VALID,0,VALID,97.0613,VALID,0,VALID,19.7223,VALID,150,VALID,0,
2011-10-27, 03:06:04,VALID,914.615,VALID,0,VALID,97.0537,VALID,0,VALID,19.7028,VALID,150,VALID,0,
2011-10-27, 03:07:04,VALID,914.646,VALID,0,VALID,97.0994,VALID,0,VALID,19.7013,VALID,150,VALID,0,
2011-10-27, 03:08:04,VALID,914.652,VALID,0,VALID,97.1071,VALID,0,VALID,19.7223,VALID,150,VALID,0,
2011-10-27, 03:09:04,VALID,914.649,VALID,0,VALID,97.0994,VALID,0,VALID,19.7613,VALID,150,VALID,0,
2011-10-27, 03:10:04,VALID,914.634,VALID,0,VALID,97.1223,VALID,0,VALID,19.7223,VALID,150,VALID,0.1125,
2011-10-27, 03:11:04,VALID,914.638,VALID,0,VALID,97.1147,VALID,0,VALID,19.7028,VALID,150,VALID,0.0546875,
2011-10-27, 03:12:04,VALID,914.621,VALID,0,VALID,97.1147,VALID,0,VALID,19.7418,VALID,150,VALID,0.166406,
2011-10-27, 03:13:04,VALID,914.639,VALID,0,VALID,97.1299,VALID,0,VALID,19.7028,VALID,150,VALID,0.182812,
2011-10-27, 03:14:04,VALID,914.635,VALID,0,VALID,97.1299,VALID,0,VALID,19.7028,VALID,150,VALID,0.228125,
2011-10-27, 03:15:04,VALID,914.653,VALID,0,VALID,97.1147,VALID,0,VALID,19.7028,VALID,150,VALID,0.160938,
2011-10-27, 03:16:04,VALID,914.653,VALID,0,VALID,97.1223,VALID,0,VALID,19.7028,VALID,150,VALID,0.283594,
2011-10-27, 03:17:04,VALID,914.642,VALID,0,VALID,97.1376,VALID,0,VALID,19.7208,VALID,150,VALID,0.327344,
2011-10-27, 03:18:04,VALID,914.622,VALID,0,VALID,97.1452,VALID,0,VALID,19.7613,VALID,150,VALID,0.3625,
2011-10-27, 03:19:04,VALID,914.65,VALID,0,VALID,97.1376,VALID,0,VALID,19.7223,VALID,150,VALID,0.380469,
2011-10-27, 03:20:04,VALID,914.637,VALID,0,VALID,97.1299,VALID,0,VALID,19.7013,VALID,150,VALID,0.461719,
2011-10-27, 03:21:04,VALID,914.625,VALID,0,VALID,97.1452,VALID,0,VALID,19.7613,VALID,150,VALID,0.00195313,
2011-10-27, 03:22:04,VALID,914.631,VALID,0,VALID,97.1681,VALID,0,VALID,19.7418,VALID,150,VALID,0.3,
2011-10-27, 03:23:04,VALID,914.662,VALID,0,VALID,97.1452,VALID,0,VALID,19.7223,VALID,150,VALID,0.322656,
2011-10-27, 03:24:04,VALID,914.639,VALID,0,VALID,97.1376,VALID,0,VALID,19.7418,VALID,150,VALID,0.176563,
2011-10-27, 03:25:04,VALID,914.655,VALID,0,VALID,97.1376,VALID,0,VALID,19.7418,VALID,150,VALID,0.553125,
2011-10-27, 03:26:04,VALID,914.641,VALID,0,VALID,97.1299,VALID,0,VALID,19.7418,VALID,150,VALID,0.526953,
2011-10-27, 03:27:04,VALID,914.637,VALID,0,VALID,97.1376,VALID,0,VALID,19.7418,VALID,150,VALID,0.238672,
2011-10-27, 03:28:04,VALID,914.617,VALID,0,VALID,97.1376,VALID,0,VALID,19.6818,VALID,150,VALID,0.386719,
2011-10-27, 03:29:04,VALID,914.619,VALID,0,VALID,97.1147,VALID,0,VALID,19.6818,VALID,150,VALID,0.336328,
2011-10-27, 03:30:04,VALID,914.622,VALID,0,VALID,97.1223,VALID,0,VALID,19.7028,VALID,150,VALID,0.394141,
2011-10-27, 03:31:04,VALID,914.643,VALID,0,VALID,97.1223,VALID,0,VALID,19.7223,VALID,150,VALID,0.164844,
2011-10-27, 03:32:04,VALID,914.646,VALID,0,VALID,97.1376,VALID,0,VALID,19.7208,VALID,150,VALID,0,
2011-10-27, 03:33:04,VALID,914.652,VALID,0,VALID,97.1376,VALID,0,VALID,19.7418,VALID,150,VALID,0.0046875,
2011-10-27, 03:34:04,VALID,914.604,VALID,0,VALID,97.1452,VALID,0,VALID,19.7418,VALID,150,VALID,0.0140625,
2011-10-27, 03:35:04,VALID,914.648,VALID,0,VALID,97.1299,VALID,0,VALID,19.7418,VALID,150,VALID,0,
2011-10-27, 03:36:04,VALID,914.637,VALID,0,VALID,97.1757,VALID,0,VALID,19.7418,VALID,150,VALID,0,
2011-10-27, 03:37:04,VALID,914.63,VALID,0,VALID,97.1604,VALID,0,VALID,19.7613,VALID,150,VALID,0,
2011-10-27, 03:38:04,VALID,914.623,VALID,0,VALID,97.1376,VALID,0,VALID,19.7013,VALID,150,VALID,0.121484,
2011-10-27, 03:39:04,VALID,914.63,VALID,0,VALID,97.1299,VALID,0,VALID,19.7028,VALID,150,VALID,0.411328,
2011-10-27, 03:40:04,VALID,914.61,VALID,0,VALID,97.1299,VALID,0,VALID,19.6638,VALID,150,VALID,0.344141,
2011-10-27, 03:41:04,VALID,914.637,VALID,0,VALID,97.1452,VALID,0,VALID,19.6638,VALID,150,VALID,0.0515625,
2011-10-27, 03:42:04,VALID,914.666,VALID,0,VALID,97.1452,VALID,0,VALID,19.6623,VALID,150,VALID,0,
2011-10-27, 03:43:04,VALID,914.653,VALID,0,VALID,97.1376,VALID,0,VALID,19.6623,VALID,150,VALID,0.324219,
2011-10-27, 03:44:04,VALID,914.631,VALID,0,VALID,97.1604,VALID,0,VALID,19.7028,VALID,150,VALID,0.208203,
2011-10-27, 03:45:04,VALID,914.645,VALID,0,VALID,97.1528,VALID,0,VALID,19.6833,VALID,150,VALID,0.471094,